Location: Olomouc
(49.5830°N, 17.2500°E)
Time: 04:16:25
(UTC+01:00)

ISS - Pass Details

Date: 06 November 2021
Orbit: 417 x 423 km, 51.6° (Epoch: 01 December)

Event Time Altitude Azimuth Distance (km) Brightness Sun altitude
Exits shadow 03:57:15 21° 95° (E) 1,008 -1.2 -27.8°
Drops below altitude 10° 03:58:30 10° 98° (E) 1,500 -0.1 -27.6°
Sets 04:00:36 0° 101° (E) 2,362 1.2 -27.3°
